Year,Month,Day,Hour,Minute,Value (Times are PST for windgust in km/hr)
2016,09,17,00,00,4.80
2016,09,17,00,01,9.60
2016,09,17,00,02,8.10
2016,09,17,00,03,14.50
2016,09,17,00,04,14.50
2016,09,17,00,05,11.30
2016,09,17,00,06,4.80
2016,09,17,00,07,11.30
2016,09,17,00,08,8.10
2016,09,17,00,09,8.10
2016,09,17,00,10,3.20
2016,09,17,00,11,4.80
2016,09,17,00,12,9.60
2016,09,17,00,13,16.10
2016,09,17,00,14,3.20
2016,09,17,00,15,3.20
2016,09,17,00,16,11.30
2016,09,17,00,17,11.30
2016,09,17,00,18,8.10
2016,09,17,00,19,8.10
2016,09,17,00,20,12.90
2016,09,17,00,21,9.60
2016,09,17,00,22,11.30
2016,09,17,00,23,14.50
2016,09,17,00,24,14.50
2016,09,17,00,25,4.80
2016,09,17,00,26,4.80
2016,09,17,00,27,3.20
2016,09,17,00,28,8.10
2016,09,17,00,29,3.20
2016,09,17,00,30,6.40
2016,09,17,00,31,24.20
2016,09,17,00,32,17.70
2016,09,17,00,33,6.40
2016,09,17,00,34,6.40
2016,09,17,00,35,6.40
2016,09,17,00,36,9.60
2016,09,17,00,37,9.60
2016,09,17,00,38,1.60
2016,09,17,00,40,8.10
2016,09,17,00,41,4.80
2016,09,17,00,42,6.40
2016,09,17,00,43,3.20
2016,09,17,00,45,1.60
2016,09,17,00,46,1.60
2016,09,17,00,48,1.60
2016,09,17,00,49,3.20
2016,09,17,00,50,4.80
2016,09,17,00,51,8.10
2016,09,17,00,52,6.40
2016,09,17,00,53,6.40
2016,09,17,00,54,3.20
2016,09,17,00,55,4.80
2016,09,17,00,56,3.20
2016,09,17,00,57,1.60
2016,09,17,00,58,3.20
2016,09,17,00,59,3.20
2016,09,17,01,00,1.60
2016,09,17,01,01,1.60
2016,09,17,01,02,4.80
2016,09,17,01,03,6.40
2016,09,17,01,04,4.80
2016,09,17,01,05,3.20
2016,09,17,01,07,1.60
2016,09,17,01,08,1.60
2016,09,17,01,09,4.80
2016,09,17,01,10,1.60
2016,09,17,01,13,4.80
2016,09,17,01,14,4.80
2016,09,17,01,15,3.20
2016,09,17,01,16,11.30
2016,09,17,01,17,9.60
2016,09,17,01,18,8.10
2016,09,17,01,19,9.60
2016,09,17,01,20,4.80
2016,09,17,01,27,1.60
2016,09,17,01,28,3.20
2016,09,17,01,29,3.20
2016,09,17,01,30,1.60
2016,09,17,01,31,3.20
2016,09,17,01,34,1.60
2016,09,17,01,44,1.60
2016,09,17,01,46,3.20
2016,09,17,01,47,4.80
2016,09,17,01,48,4.80
2016,09,17,01,49,1.60
2016,09,17,01,50,4.80
2016,09,17,01,51,4.80
2016,09,17,01,52,3.20
2016,09,17,01,53,3.20
2016,09,17,01,54,6.40
2016,09,17,01,55,6.40
2016,09,17,01,56,4.80
2016,09,17,01,57,1.60
2016,09,17,02,01,1.60
2016,09,17,02,02,4.80
2016,09,17,02,04,1.60
2016,09,17,02,05,1.60
2016,09,17,02,12,1.60
2016,09,17,02,13,3.20
2016,09,17,02,14,4.80
2016,09,17,02,17,1.60
2016,09,17,02,19,1.60
2016,09,17,02,20,1.60
2016,09,17,02,21,1.60
2016,09,17,02,22,1.60
2016,09,17,02,23,1.60
2016,09,17,02,24,1.60
2016,09,17,02,25,1.60
2016,09,17,02,26,1.60
2016,09,17,02,29,1.60
2016,09,17,02,32,1.60
2016,09,17,02,33,3.20
2016,09,17,02,34,1.60
2016,09,17,02,36,3.20
2016,09,17,02,37,4.80
2016,09,17,02,38,3.20
2016,09,17,02,39,1.60
2016,09,17,02,40,1.60
2016,09,17,02,41,3.20
2016,09,17,02,42,1.60
2016,09,17,02,43,3.20
2016,09,17,02,44,4.80
2016,09,17,02,45,4.80
2016,09,17,02,46,3.20
2016,09,17,02,47,1.60
2016,09,17,02,48,1.60
2016,09,17,02,50,3.20
2016,09,17,02,51,1.60
2016,09,17,02,52,1.60
2016,09,17,02,56,1.60
2016,09,17,02,57,3.20
2016,09,17,02,58,3.20
2016,09,17,02,59,3.20
2016,09,17,03,00,1.60
2016,09,17,03,08,1.60
2016,09,17,03,20,1.60
2016,09,17,03,21,1.60
2016,09,17,03,46,1.60
2016,09,17,03,53,1.60
2016,09,17,03,55,1.60
2016,09,17,04,00,4.80
2016,09,17,04,01,6.40
2016,09,17,04,02,1.60
2016,09,17,04,04,3.20
2016,09,17,04,05,1.60
2016,09,17,04,06,1.60
2016,09,17,04,09,1.60
2016,09,17,04,10,1.60
2016,09,17,04,11,1.60
2016,09,17,04,23,1.60
2016,09,17,04,24,4.80
2016,09,17,04,25,1.60
2016,09,17,04,27,1.60
2016,09,17,04,29,1.60
2016,09,17,04,32,1.60
2016,09,17,04,43,1.60
2016,09,17,04,44,1.60
2016,09,17,04,45,1.60
2016,09,17,05,00,1.60
2016,09,17,05,01,3.20
2016,09,17,05,02,3.20
2016,09,17,05,08,1.60
2016,09,17,05,12,1.60
2016,09,17,05,56,1.60
2016,09,17,05,57,1.60
2016,09,17,05,59,1.60
2016,09,17,06,00,1.60
2016,09,17,06,01,4.80
2016,09,17,06,02,3.20
2016,09,17,06,03,4.80
2016,09,17,06,04,4.80
2016,09,17,06,05,4.80
2016,09,17,06,06,3.20
2016,09,17,06,07,1.60
2016,09,17,06,08,1.60
2016,09,17,06,09,3.20
2016,09,17,06,10,3.20
2016,09,17,06,11,1.60
2016,09,17,06,12,1.60
2016,09,17,06,13,3.20
2016,09,17,06,14,4.80
2016,09,17,06,15,3.20
2016,09,17,06,16,1.60
2016,09,17,06,17,4.80
2016,09,17,06,18,4.80
2016,09,17,06,21,1.60
2016,09,17,06,22,1.60
2016,09,17,06,23,1.60
2016,09,17,06,24,1.60
2016,09,17,06,26,3.20
2016,09,17,06,27,3.20
2016,09,17,06,28,1.60
2016,09,17,06,29,1.60
2016,09,17,06,30,3.20
2016,09,17,06,31,4.80
2016,09,17,06,32,4.80
2016,09,17,06,33,1.60
2016,09,17,06,35,3.20
2016,09,17,06,36,3.20
2016,09,17,06,40,3.20
2016,09,17,06,41,3.20
2016,09,17,06,42,3.20
2016,09,17,06,43,1.60
2016,09,17,06,44,1.60
2016,09,17,06,45,1.60
2016,09,17,06,46,3.20
2016,09,17,06,47,1.60
2016,09,17,06,48,1.60
2016,09,17,06,49,1.60
2016,09,17,06,50,3.20
2016,09,17,06,51,4.80
2016,09,17,06,52,1.60
2016,09,17,06,53,1.60
2016,09,17,06,54,3.20
2016,09,17,06,55,1.60
2016,09,17,06,56,1.60
2016,09,17,06,59,1.60
2016,09,17,07,00,1.60
2016,09,17,07,09,1.60
2016,09,17,07,10,1.60
2016,09,17,07,11,1.60
2016,09,17,07,12,3.20
2016,09,17,07,13,3.20
2016,09,17,07,14,3.20
2016,09,17,07,15,4.80
2016,09,17,07,16,8.10
2016,09,17,07,17,3.20
2016,09,17,07,18,3.20
2016,09,17,07,19,4.80
2016,09,17,07,20,4.80
2016,09,17,07,21,1.60
2016,09,17,07,22,8.10
2016,09,17,07,23,4.80
2016,09,17,07,24,1.60
2016,09,17,07,25,1.60
2016,09,17,07,35,1.60
2016,09,17,07,36,3.20
2016,09,17,07,37,4.80
2016,09,17,07,38,3.20
2016,09,17,07,39,3.20
2016,09,17,07,42,3.20
2016,09,17,07,43,3.20
2016,09,17,07,45,1.60
2016,09,17,07,47,1.60
2016,09,17,07,48,3.20
2016,09,17,07,49,3.20
2016,09,17,07,54,1.60
2016,09,17,08,00,3.20
2016,09,17,08,01,1.60
2016,09,17,08,03,1.60
2016,09,17,08,06,3.20
2016,09,17,08,07,1.60
2016,09,17,08,08,3.20
2016,09,17,08,09,3.20
2016,09,17,08,10,1.60
2016,09,17,08,11,4.80
2016,09,17,08,12,4.80
2016,09,17,08,13,3.20
2016,09,17,08,14,4.80
2016,09,17,08,15,1.60
2016,09,17,08,17,1.60
2016,09,17,08,20,3.20
2016,09,17,08,21,1.60
2016,09,17,08,23,1.60
2016,09,17,08,25,1.60
2016,09,17,08,30,1.60
2016,09,17,08,34,1.60
2016,09,17,08,35,1.60
2016,09,17,08,36,3.20
2016,09,17,08,40,1.60
2016,09,17,08,42,1.60
2016,09,17,08,43,3.20
2016,09,17,08,46,3.20
2016,09,17,08,47,3.20
2016,09,17,08,52,3.20
2016,09,17,08,53,8.10
2016,09,17,08,54,8.10
2016,09,17,08,55,8.10
2016,09,17,08,56,3.20
2016,09,17,08,57,1.60
2016,09,17,08,58,1.60
2016,09,17,09,01,1.60
2016,09,17,09,02,1.60
2016,09,17,09,03,1.60
2016,09,17,09,04,4.80
2016,09,17,09,05,6.40
2016,09,17,09,06,6.40
2016,09,17,09,07,6.40
2016,09,17,09,08,4.80
2016,09,17,09,10,8.10
2016,09,17,09,11,3.20
2016,09,17,09,13,3.20
2016,09,17,09,15,6.40
2016,09,17,09,16,6.40
2016,09,17,09,17,6.40
2016,09,17,09,18,6.40
2016,09,17,09,20,4.80
2016,09,17,09,21,4.80
2016,09,17,09,22,4.80
2016,09,17,09,23,4.80
2016,09,17,09,24,1.60
2016,09,17,09,28,1.60
2016,09,17,09,29,3.20
2016,09,17,09,30,3.20
2016,09,17,09,40,1.60
2016,09,17,09,41,1.60
2016,09,17,09,50,1.60
2016,09,17,09,51,3.20
2016,09,17,09,52,3.20
2016,09,17,09,53,3.20
2016,09,17,09,55,1.60
2016,09,17,09,56,3.20
2016,09,17,09,57,1.60
2016,09,17,09,58,1.60
2016,09,17,10,01,1.60
2016,09,17,10,02,1.60
2016,09,17,10,05,4.80
2016,09,17,10,06,1.60
2016,09,17,10,18,1.60
2016,09,17,10,19,3.20
2016,09,17,10,20,3.20
2016,09,17,10,21,3.20
2016,09,17,10,22,3.20
2016,09,17,10,23,6.40
2016,09,17,10,24,4.80
2016,09,17,10,25,4.80
2016,09,17,10,26,4.80
2016,09,17,10,27,4.80
2016,09,17,10,28,3.20
2016,09,17,10,29,1.60
2016,09,17,10,30,1.60
2016,09,17,10,31,3.20
2016,09,17,10,34,3.20
2016,09,17,10,35,1.60
2016,09,17,10,36,1.60
2016,09,17,10,38,1.60
2016,09,17,10,39,3.20
2016,09,17,10,40,1.60
2016,09,17,10,44,1.60
2016,09,17,10,45,3.20
2016,09,17,10,46,3.20
2016,09,17,10,48,1.60
2016,09,17,10,49,3.20
2016,09,17,10,50,3.20
2016,09,17,10,51,3.20
2016,09,17,10,55,3.20
2016,09,17,10,56,4.80
2016,09,17,10,57,3.20
2016,09,17,10,58,3.20
2016,09,17,10,59,1.60
2016,09,17,11,00,1.60
2016,09,17,11,01,3.20
2016,09,17,11,02,1.60
2016,09,17,11,08,1.60
2016,09,17,11,16,3.20
2016,09,17,11,17,3.20
2016,09,17,11,18,1.60
2016,09,17,11,20,1.60
2016,09,17,11,22,1.60
2016,09,17,11,23,3.20
2016,09,17,11,24,3.20
2016,09,17,11,25,1.60
2016,09,17,11,26,1.60
2016,09,17,11,27,3.20
2016,09,17,11,28,3.20
2016,09,17,11,29,3.20
2016,09,17,11,31,4.80
2016,09,17,11,32,4.80
2016,09,17,11,33,8.10
2016,09,17,11,43,3.20
2016,09,17,11,44,3.20
2016,09,17,11,45,1.60
2016,09,17,11,46,3.20
2016,09,17,11,47,3.20
2016,09,17,11,48,4.80
2016,09,17,11,49,4.80
2016,09,17,11,50,6.40
2016,09,17,11,51,6.40
2016,09,17,11,52,4.80
2016,09,17,11,53,3.20
2016,09,17,11,54,3.20
2016,09,17,11,55,4.80
2016,09,17,11,56,3.20
2016,09,17,11,57,3.20
2016,09,17,11,58,6.40
2016,09,17,11,59,3.20
2016,09,17,12,00,1.60
2016,09,17,12,01,8.10
2016,09,17,12,02,6.40
2016,09,17,12,03,16.10
2016,09,17,12,04,11.30
2016,09,17,12,05,8.10
2016,09,17,12,06,9.60
2016,09,17,12,07,6.40
2016,09,17,12,08,9.60
2016,09,17,12,09,19.30
2016,09,17,12,10,14.50
2016,09,17,12,11,9.60
2016,09,17,12,12,6.40
2016,09,17,12,13,3.20
2016,09,17,12,14,9.60
2016,09,17,12,15,9.60
2016,09,17,12,16,6.40
2016,09,17,12,17,11.30
2016,09,17,12,18,11.30
2016,09,17,12,19,11.30
2016,09,17,12,20,6.40
2016,09,17,12,21,9.60
2016,09,17,12,22,8.10
2016,09,17,12,23,6.40
2016,09,17,12,24,8.10
2016,09,17,12,25,6.40
2016,09,17,12,26,8.10
2016,09,17,12,27,8.10
2016,09,17,12,28,9.60
2016,09,17,12,29,9.60
2016,09,17,12,30,12.90
2016,09,17,12,31,12.90
2016,09,17,12,32,9.60
2016,09,17,12,33,20.90
2016,09,17,12,34,9.60
2016,09,17,12,35,12.90
2016,09,17,12,36,14.50
2016,09,17,12,37,14.50
2016,09,17,12,38,11.30
2016,09,17,12,39,6.40
2016,09,17,12,40,14.50
2016,09,17,12,41,20.90
2016,09,17,12,42,17.70
2016,09,17,12,43,9.60
2016,09,17,12,44,11.30
2016,09,17,12,45,14.50
2016,09,17,12,46,12.90
2016,09,17,12,47,11.30
2016,09,17,12,48,14.50
2016,09,17,12,49,6.40
2016,09,17,12,50,6.40
2016,09,17,12,51,22.50
2016,09,17,12,52,11.30
2016,09,17,12,53,8.10
2016,09,17,12,54,8.10
2016,09,17,12,55,22.50
2016,09,17,12,56,20.90
2016,09,17,12,57,11.30
2016,09,17,12,58,17.70
2016,09,17,12,59,16.10
2016,09,17,13,00,22.50
2016,09,17,13,01,22.50
2016,09,17,13,02,19.30
2016,09,17,13,03,19.30
2016,09,17,13,04,30.60
2016,09,17,13,05,22.50
2016,09,17,13,06,16.10
2016,09,17,13,07,25.70
2016,09,17,13,08,33.80
2016,09,17,13,09,20.90
2016,09,17,13,10,19.30
2016,09,17,13,11,17.70
2016,09,17,13,12,16.10
2016,09,17,13,13,27.40
2016,09,17,13,14,40.20
2016,09,17,13,15,17.70
2016,09,17,13,16,33.80
2016,09,17,13,17,43.50
2016,09,17,13,18,20.90
2016,09,17,13,19,22.50
2016,09,17,13,20,22.50
2016,09,17,13,21,27.40
2016,09,17,13,22,17.70
2016,09,17,13,23,11.30
2016,09,17,13,24,27.40
2016,09,17,13,25,14.50
2016,09,17,13,26,14.50
2016,09,17,13,27,24.20
2016,09,17,13,28,35.40
2016,09,17,13,29,29.00
2016,09,17,13,30,30.60
2016,09,17,13,31,19.30
2016,09,17,13,32,30.60
2016,09,17,13,33,27.40
2016,09,17,13,34,25.70
2016,09,17,13,35,30.60
2016,09,17,13,36,38.60
2016,09,17,13,37,38.60
2016,09,17,13,38,41.80
2016,09,17,13,39,38.60
2016,09,17,13,40,32.20
2016,09,17,13,41,38.60
2016,09,17,13,42,24.20
2016,09,17,13,43,51.50
2016,09,17,13,44,37.00
2016,09,17,13,45,43.50
2016,09,17,13,46,33.80
2016,09,17,13,47,32.20
2016,09,17,13,48,24.20
2016,09,17,13,49,35.40
2016,09,17,13,50,30.60
2016,09,17,13,51,32.20
2016,09,17,13,52,29.00
2016,09,17,13,53,25.70
2016,09,17,13,54,30.60
2016,09,17,13,55,16.10
2016,09,17,13,56,17.70
2016,09,17,13,57,19.30
2016,09,17,13,58,20.90
2016,09,17,13,59,25.70
2016,09,17,14,00,32.20
2016,09,17,14,01,27.40
2016,09,17,14,02,24.20
2016,09,17,14,03,33.80
2016,09,17,14,04,35.40
2016,09,17,14,05,30.60
2016,09,17,14,06,17.70
2016,09,17,14,07,30.60
2016,09,17,14,08,22.50
2016,09,17,14,09,27.40
2016,09,17,14,10,19.30
2016,09,17,14,11,32.20
2016,09,17,14,12,20.90
2016,09,17,14,13,16.10
2016,09,17,14,14,17.70
2016,09,17,14,15,19.30
2016,09,17,14,16,24.20
2016,09,17,14,17,22.50
2016,09,17,14,18,30.60
2016,09,17,14,19,25.70
2016,09,17,14,20,30.60
2016,09,17,14,21,16.10
2016,09,17,14,22,20.90
2016,09,17,14,23,19.30
2016,09,17,14,24,25.70
2016,09,17,14,25,35.40
2016,09,17,14,26,25.70
2016,09,17,14,27,17.70
2016,09,17,14,28,24.20
2016,09,17,14,29,29.00
2016,09,17,14,30,38.60
2016,09,17,14,31,29.00
2016,09,17,14,32,24.20
2016,09,17,14,33,27.40
2016,09,17,14,34,35.40
2016,09,17,14,35,25.70
2016,09,17,14,36,17.70
2016,09,17,14,37,9.60
2016,09,17,14,38,20.90
2016,09,17,14,39,22.50
2016,09,17,14,40,20.90
2016,09,17,14,41,25.70
2016,09,17,14,42,25.70
2016,09,17,14,43,14.50
2016,09,17,14,44,6.40
2016,09,17,14,45,14.50
2016,09,17,14,46,16.10
2016,09,17,14,47,37.00
2016,09,17,14,48,29.00
2016,09,17,14,49,29.00
2016,09,17,14,50,20.90
2016,09,17,14,51,19.30
2016,09,17,14,52,20.90
2016,09,17,14,53,22.50
2016,09,17,14,54,22.50
2016,09,17,14,55,11.30
2016,09,17,14,56,9.60
2016,09,17,14,57,14.50
2016,09,17,14,58,9.60
2016,09,17,14,59,19.30
2016,09,17,15,00,20.90
2016,09,17,15,01,24.20
2016,09,17,15,02,30.60
2016,09,17,15,03,24.20
2016,09,17,15,04,25.70
2016,09,17,15,05,16.10
2016,09,17,15,06,22.50
2016,09,17,15,07,25.70
2016,09,17,15,08,40.20
2016,09,17,15,09,38.60
2016,09,17,15,10,27.40
2016,09,17,15,11,22.50
2016,09,17,15,12,22.50
2016,09,17,15,13,25.70
2016,09,17,15,14,24.20
2016,09,17,15,15,35.40
2016,09,17,15,16,22.50
2016,09,17,15,17,25.70
2016,09,17,15,18,32.20
2016,09,17,15,19,29.00
2016,09,17,15,20,37.00
2016,09,17,15,21,35.40
2016,09,17,15,22,27.40
2016,09,17,15,23,25.70
2016,09,17,15,24,25.70
2016,09,17,15,25,35.40
2016,09,17,15,26,25.70
2016,09,17,15,27,17.70
2016,09,17,15,28,19.30
2016,09,17,15,29,24.20
2016,09,17,15,30,24.20
2016,09,17,15,31,17.70
2016,09,17,15,32,25.70
2016,09,17,15,33,19.30
2016,09,17,15,34,22.50
2016,09,17,15,35,33.80
2016,09,17,15,36,27.40
2016,09,17,15,37,24.20
2016,09,17,15,38,17.70
2016,09,17,15,39,20.90
2016,09,17,15,40,32.20
2016,09,17,15,41,27.40
2016,09,17,15,42,20.90
2016,09,17,15,43,17.70
2016,09,17,15,44,12.90
2016,09,17,15,45,6.40
2016,09,17,15,46,11.30
2016,09,17,15,47,16.10
2016,09,17,15,48,16.10
2016,09,17,15,49,25.70
2016,09,17,15,50,20.90
2016,09,17,15,51,19.30
2016,09,17,15,52,11.30
2016,09,17,15,53,19.30
2016,09,17,15,54,25.70
2016,09,17,15,55,6.40
2016,09,17,15,56,32.20
2016,09,17,15,57,20.90
2016,09,17,15,58,24.20
2016,09,17,15,59,25.70
2016,09,17,16,00,25.70
2016,09,17,16,01,16.10
2016,09,17,16,02,16.10
2016,09,17,16,03,24.20
2016,09,17,16,04,16.10
2016,09,17,16,05,30.60
2016,09,17,16,06,20.90
2016,09,17,16,07,16.10
2016,09,17,16,08,3.20
2016,09,17,16,09,8.10
2016,09,17,16,10,32.20
2016,09,17,16,11,9.60
2016,09,17,16,12,9.60
2016,09,17,16,13,11.30
2016,09,17,16,14,17.70
2016,09,17,16,15,29.00
2016,09,17,16,16,19.30
2016,09,17,16,17,17.70
2016,09,17,16,18,14.50
2016,09,17,16,19,16.10
2016,09,17,16,20,6.40
2016,09,17,16,21,9.60
2016,09,17,16,22,6.40
2016,09,17,16,23,6.40
2016,09,17,16,24,3.20
2016,09,17,16,25,8.10
2016,09,17,16,26,9.60
2016,09,17,16,27,9.60
2016,09,17,16,28,6.40
2016,09,17,16,29,9.60
2016,09,17,16,30,19.30
2016,09,17,16,31,14.50
2016,09,17,16,32,24.20
2016,09,17,16,33,25.70
2016,09,17,16,34,14.50
2016,09,17,16,35,6.40
2016,09,17,16,36,20.90
2016,09,17,16,37,19.30
2016,09,17,16,38,11.30
2016,09,17,16,39,12.90
2016,09,17,16,40,16.10
2016,09,17,16,41,16.10
2016,09,17,16,42,24.20
2016,09,17,16,43,19.30
2016,09,17,16,44,11.30
2016,09,17,16,45,20.90
2016,09,17,16,46,19.30
2016,09,17,16,47,14.50
2016,09,17,16,48,17.70
2016,09,17,16,49,11.30
2016,09,17,16,50,16.10
2016,09,17,16,51,17.70
2016,09,17,16,52,16.10
2016,09,17,16,53,20.90
2016,09,17,16,54,14.50
2016,09,17,16,55,14.50
2016,09,17,16,56,14.50
2016,09,17,16,57,19.30
2016,09,17,16,58,17.70
2016,09,17,16,59,9.60
2016,09,17,17,00,16.10
2016,09,17,17,01,22.50
2016,09,17,17,02,25.70
2016,09,17,17,03,22.50
2016,09,17,17,04,24.20
2016,09,17,17,05,19.30
2016,09,17,17,06,20.90
2016,09,17,17,07,22.50
2016,09,17,17,08,11.30
2016,09,17,17,09,11.30
2016,09,17,17,10,9.60
2016,09,17,17,11,30.60
2016,09,17,17,12,32.20
2016,09,17,17,13,27.40
2016,09,17,17,14,24.20
2016,09,17,17,15,17.70
2016,09,17,17,16,6.40
2016,09,17,17,17,16.10
2016,09,17,17,18,8.10
2016,09,17,17,19,8.10
2016,09,17,17,20,6.40
2016,09,17,17,21,6.40
2016,09,17,17,22,11.30
2016,09,17,17,23,9.60
2016,09,17,17,24,14.50
2016,09,17,17,25,16.10
2016,09,17,17,26,19.30
2016,09,17,17,27,6.40
2016,09,17,17,28,6.40
2016,09,17,17,29,14.50
2016,09,17,17,30,11.30
2016,09,17,17,31,4.80
2016,09,17,17,32,12.90
2016,09,17,17,33,16.10
2016,09,17,17,34,9.60
2016,09,17,17,35,11.30
2016,09,17,17,36,14.50
2016,09,17,17,37,11.30
2016,09,17,17,38,4.80
2016,09,17,17,39,8.10
2016,09,17,17,40,6.40
2016,09,17,17,41,12.90
2016,09,17,17,42,14.50
2016,09,17,17,43,3.20
2016,09,17,17,44,8.10
2016,09,17,17,45,9.60
2016,09,17,17,46,12.90
2016,09,17,17,47,6.40
2016,09,17,17,48,4.80
2016,09,17,17,49,3.20
2016,09,17,17,50,8.10
2016,09,17,17,51,9.60
2016,09,17,17,52,3.20
2016,09,17,17,53,8.10
2016,09,17,17,54,3.20
2016,09,17,17,55,3.20
2016,09,17,17,56,6.40
2016,09,17,17,57,4.80
2016,09,17,17,58,3.20
2016,09,17,17,59,8.10
2016,09,17,18,00,6.40
2016,09,17,18,01,1.60
2016,09,17,18,03,9.60
2016,09,17,18,04,9.60
2016,09,17,18,05,20.90
2016,09,17,18,06,9.60
2016,09,17,18,07,4.80
2016,09,17,18,08,3.20
2016,09,17,18,09,4.80
2016,09,17,18,10,3.20
2016,09,17,18,11,8.10
2016,09,17,18,12,14.50
2016,09,17,18,13,14.50
2016,09,17,18,14,11.30
2016,09,17,18,15,16.10
2016,09,17,18,16,6.40
2016,09,17,18,17,6.40
2016,09,17,18,18,6.40
2016,09,17,18,19,6.40
2016,09,17,18,20,9.60
2016,09,17,18,21,8.10
2016,09,17,18,22,4.80
2016,09,17,18,23,4.80
2016,09,17,18,24,3.20
2016,09,17,18,25,3.20
2016,09,17,18,26,4.80
2016,09,17,18,27,3.20
2016,09,17,18,28,4.80
2016,09,17,18,29,3.20
2016,09,17,18,30,3.20
2016,09,17,18,31,3.20
2016,09,17,18,32,3.20
2016,09,17,18,33,11.30
2016,09,17,18,34,9.60
2016,09,17,18,35,1.60
2016,09,17,18,36,1.60
2016,09,17,18,37,6.40
2016,09,17,18,38,9.60
2016,09,17,18,39,17.70
2016,09,17,18,40,8.10
2016,09,17,18,41,8.10
2016,09,17,18,42,8.10
2016,09,17,18,43,4.80
2016,09,17,18,44,1.60
2016,09,17,18,47,4.80
2016,09,17,18,48,4.80
2016,09,17,18,49,6.40
2016,09,17,18,50,3.20
2016,09,17,18,51,3.20
2016,09,17,18,52,6.40
2016,09,17,18,53,3.20
2016,09,17,18,54,4.80
2016,09,17,18,55,1.60
2016,09,17,18,56,6.40
2016,09,17,18,57,3.20
2016,09,17,18,58,12.90
2016,09,17,18,59,14.50
2016,09,17,19,00,6.40
2016,09,17,19,01,12.90
2016,09,17,19,02,3.20
2016,09,17,19,03,3.20
2016,09,17,19,04,6.40
2016,09,17,19,05,14.50
2016,09,17,19,06,11.30
2016,09,17,19,07,16.10
2016,09,17,19,08,6.40
2016,09,17,19,09,3.20
2016,09,17,19,10,12.90
2016,09,17,19,11,14.50
2016,09,17,19,12,9.60
2016,09,17,19,13,11.30
2016,09,17,19,14,12.90
2016,09,17,19,15,11.30
2016,09,17,19,16,12.90
2016,09,17,19,17,12.90
2016,09,17,19,18,11.30
2016,09,17,19,19,14.50
2016,09,17,19,20,17.70
2016,09,17,19,21,17.70
2016,09,17,19,22,8.10
2016,09,17,19,23,11.30
2016,09,17,19,24,11.30
2016,09,17,19,25,14.50
2016,09,17,19,26,8.10
2016,09,17,19,27,11.30
2016,09,17,19,28,14.50
2016,09,17,19,29,9.60
2016,09,17,19,30,11.30
2016,09,17,19,31,8.10
2016,09,17,19,32,12.90
2016,09,17,19,33,14.50
2016,09,17,19,34,16.10
2016,09,17,19,35,16.10
2016,09,17,19,36,19.30
2016,09,17,19,37,19.30
2016,09,17,19,38,19.30
2016,09,17,19,39,25.70
2016,09,17,19,40,14.50
2016,09,17,19,41,14.50
2016,09,17,19,42,11.30
2016,09,17,19,43,17.70
2016,09,17,19,44,17.70
2016,09,17,19,45,17.70
2016,09,17,19,46,19.30
2016,09,17,19,47,6.40
2016,09,17,19,48,3.20
2016,09,17,19,49,6.40
2016,09,17,19,50,14.50
2016,09,17,19,51,19.30
2016,09,17,19,52,16.10
2016,09,17,19,53,14.50
2016,09,17,19,54,17.70
2016,09,17,19,55,17.70
2016,09,17,19,56,17.70
2016,09,17,19,57,11.30
2016,09,17,19,58,14.50
2016,09,17,19,59,11.30
2016,09,17,20,00,11.30
2016,09,17,20,01,9.60
2016,09,17,20,02,22.50
2016,09,17,20,03,14.50
2016,09,17,20,04,4.80
2016,09,17,20,05,9.60
2016,09,17,20,06,8.10
2016,09,17,20,07,11.30
2016,09,17,20,08,19.30
2016,09,17,20,09,14.50
2016,09,17,20,10,19.30
2016,09,17,20,11,17.70
2016,09,17,20,12,9.60
2016,09,17,20,13,11.30
2016,09,17,20,14,6.40
2016,09,17,20,15,17.70
2016,09,17,20,16,17.70
2016,09,17,20,17,9.60
2016,09,17,20,18,11.30
2016,09,17,20,19,9.60
2016,09,17,20,20,16.10
2016,09,17,20,21,11.30
2016,09,17,20,22,14.50
2016,09,17,20,23,24.20
2016,09,17,20,24,19.30
2016,09,17,20,25,11.30
2016,09,17,20,26,16.10
2016,09,17,20,27,14.50
2016,09,17,20,28,14.50
2016,09,17,20,29,22.50
2016,09,17,20,30,17.70
2016,09,17,20,31,22.50
2016,09,17,20,32,17.70
2016,09,17,20,33,19.30
2016,09,17,20,34,9.60
2016,09,17,20,35,17.70
2016,09,17,20,36,8.10
2016,09,17,20,37,14.50
2016,09,17,20,38,14.50
2016,09,17,20,39,20.90
2016,09,17,20,40,9.60
2016,09,17,20,41,8.10
2016,09,17,20,42,17.70
2016,09,17,20,43,11.30
2016,09,17,20,44,9.60
2016,09,17,20,45,14.50
2016,09,17,20,46,12.90
2016,09,17,20,47,9.60
2016,09,17,20,48,17.70
2016,09,17,20,49,9.60
2016,09,17,20,50,9.60
2016,09,17,20,51,16.10
2016,09,17,20,52,20.90
2016,09,17,20,53,24.20
2016,09,17,20,54,20.90
2016,09,17,20,55,8.10
2016,09,17,20,56,6.40
2016,09,17,20,57,6.40
2016,09,17,20,58,8.10
2016,09,17,20,59,19.30
2016,09,17,21,00,9.60
2016,09,17,21,01,6.40
2016,09,17,21,02,12.90
2016,09,17,21,03,17.70
2016,09,17,21,04,17.70
2016,09,17,21,05,16.10
2016,09,17,21,06,11.30
2016,09,17,21,07,14.50
2016,09,17,21,08,16.10
2016,09,17,21,09,16.10
2016,09,17,21,10,14.50
2016,09,17,21,11,4.80
2016,09,17,21,12,8.10
2016,09,17,21,13,12.90
2016,09,17,21,14,9.60
2016,09,17,21,15,12.90
2016,09,17,21,16,11.30
2016,09,17,21,17,19.30
2016,09,17,21,18,1.60
2016,09,17,21,19,3.20
2016,09,17,21,20,4.80
2016,09,17,21,21,1.60
2016,09,17,21,22,11.30
2016,09,17,21,23,8.10
2016,09,17,21,24,8.10
2016,09,17,21,25,8.10
2016,09,17,21,26,8.10
2016,09,17,21,27,6.40
2016,09,17,21,28,6.40
2016,09,17,21,29,17.70
2016,09,17,21,30,9.60
2016,09,17,21,31,4.80
2016,09,17,21,32,3.20
2016,09,17,21,34,6.40
2016,09,17,21,35,1.60
2016,09,17,21,36,1.60
2016,09,17,21,37,11.30
2016,09,17,21,38,11.30
2016,09,17,21,39,8.10
2016,09,17,21,40,1.60
2016,09,17,21,41,1.60
2016,09,17,21,42,1.60
2016,09,17,21,43,1.60
2016,09,17,21,44,3.20
2016,09,17,21,45,4.80
2016,09,17,21,46,8.10
2016,09,17,21,47,4.80
2016,09,17,21,48,4.80
2016,09,17,21,49,3.20
2016,09,17,21,50,6.40
2016,09,17,21,51,6.40
2016,09,17,21,52,3.20
2016,09,17,21,53,6.40
2016,09,17,21,54,9.60
2016,09,17,21,55,3.20
2016,09,17,21,56,1.60
2016,09,17,21,57,6.40
2016,09,17,21,58,9.60
2016,09,17,21,59,4.80
2016,09,17,22,00,4.80
2016,09,17,22,01,6.40
2016,09,17,22,02,4.80
2016,09,17,22,03,6.40
2016,09,17,22,04,4.80
2016,09,17,22,05,4.80
2016,09,17,22,08,3.20
2016,09,17,22,09,3.20
2016,09,17,22,10,1.60
2016,09,17,22,12,3.20
2016,09,17,22,13,1.60
2016,09,17,22,14,1.60
2016,09,17,22,17,1.60
2016,09,17,22,18,1.60
2016,09,17,22,20,1.60
2016,09,17,22,21,4.80
2016,09,17,22,22,3.20
2016,09,17,22,25,1.60
2016,09,17,22,27,3.20
2016,09,17,22,28,4.80
2016,09,17,22,29,1.60
2016,09,17,22,30,3.20
2016,09,17,22,31,3.20
2016,09,17,22,32,4.80
2016,09,17,22,33,3.20
2016,09,17,22,34,1.60
2016,09,17,22,35,4.80
2016,09,17,22,36,3.20
2016,09,17,22,42,1.60
2016,09,17,22,43,1.60
2016,09,17,22,44,6.40
2016,09,17,22,45,4.80
2016,09,17,22,46,1.60
2016,09,17,22,47,3.20
2016,09,17,22,48,4.80
2016,09,17,22,49,1.60
2016,09,17,22,51,1.60
2016,09,17,22,52,3.20
2016,09,17,22,53,3.20
2016,09,17,22,54,1.60
2016,09,17,22,58,1.60
2016,09,17,23,02,1.60
2016,09,17,23,08,1.60
2016,09,17,23,09,1.60
2016,09,17,23,10,1.60
2016,09,17,23,12,1.60
2016,09,17,23,13,1.60
2016,09,17,23,15,1.60
2016,09,17,23,16,6.40
2016,09,17,23,17,8.10
2016,09,17,23,18,6.40
2016,09,17,23,19,16.10
2016,09,17,23,20,16.10
2016,09,17,23,21,9.60
2016,09,17,23,22,9.60
2016,09,17,23,23,6.40
2016,09,17,23,24,6.40
2016,09,17,23,25,4.80
2016,09,17,23,26,4.80
2016,09,17,23,27,6.40
2016,09,17,23,28,4.80
2016,09,17,23,29,6.40
2016,09,17,23,30,6.40
2016,09,17,23,31,6.40
2016,09,17,23,32,3.20
2016,09,17,23,33,1.60
2016,09,17,23,34,3.20
2016,09,17,23,35,8.10
2016,09,17,23,36,4.80
2016,09,17,23,37,3.20
2016,09,17,23,39,3.20
2016,09,17,23,40,1.60
2016,09,17,23,42,4.80
2016,09,17,23,43,1.60
2016,09,17,23,44,6.40
2016,09,17,23,45,3.20
2016,09,17,23,46,1.60
2016,09,17,23,49,1.60
2016,09,17,23,50,3.20
2016,09,17,23,52,1.60
2016,09,17,23,53,1.60
2016,09,17,23,54,1.60
2016,09,17,23,57,1.60
2016,09,17,23,59,6.40
